HK4D-15 Weather Reports


Display with metric or nautical units.
time (UTC)temp
F
wind
direction
speed
MPH
gust
MPH
rain 1hr
in
rain 24hr
in
rain mn
in
humidity
%
barometer
mb
20260507092133 56 350 3.0 0.0 0.00 0.00 0.00 99 1016.0
20260507091031 56 350 3.0 0.0 0.00 0.00 0.00 99 1016.0
20260507085931 57 350 3.0 0.0 0.00 0.00 0.00 99 1016.0
20260507084830 57 350 3.0 0.0 0.00 0.00 0.00 99 1016.0
20260507083729 57 350 3.0 0.0 0.00 0.00 0.00 99 1016.0
20260507082628 57 350 3.0 0.0 0.00 0.00 0.00 99 1016.0
20260507081527 58 350 3.0 0.0 0.00 0.00 0.00 99 1016.0
20260507080427 59 350 3.0 0.0 0.00 0.00 0.00 99 1016.0
20260507075326 59 350 3.0 0.0 0.00 0.00 0.00 99 1016.0
20260507074226 59 350 3.0 0.0 0.00 0.00 0.00 99 1016.0
20260507073125 59 350 3.0 0.0 0.00 0.00 0.00 99 1016.0
20260507072023 59 350 3.0 0.0 0.00 0.00 0.00 99 1016.0
20260507070920 59 350 3.0 0.0 0.00 0.00 0.00 99 1016.0
20260507065820 61 350 2.0 0.0 0.00 0.00 0.00 93 1016.0
20260507064718 61 350 2.0 0.0 0.00 0.00 0.00 93 1016.0
20260507063618 61 350 3.0 0.0 0.00 0.00 0.00 93 1017.0
20260507062517 61 350 3.0 0.0 0.00 0.00 0.00 93 1017.0
20260507061416 61 350 3.0 0.0 0.00 0.00 0.00 93 1017.0
20260507060315 61 350 3.0 0.0 0.00 0.00 0.00 93 1017.0
20260507055213 61 350 3.0 0.0 0.00 0.00 0.00 93 1017.0
20260507054113 61 350 3.0 0.0 0.00 0.00 0.00 93 1017.0
20260507053010 61 350 3.0 0.0 0.00 0.00 0.00 93 1017.0
20260507051909 61 350 3.0 0.0 0.00 0.00 0.00 93 1018.0
20260507050808 61 350 3.0 0.0 0.00 0.00 0.00 92 1018.0
20260507045707 61 350 3.0 0.0 0.00 0.00 0.00 92 1018.0
20260507044607 61 350 3.0 0.0 0.00 0.00 0.00 92 1018.0
20260507043506 61 350 3.0 0.0 0.00 0.00 0.00 91 1018.0
20260507042405 61 350 3.0 0.0 0.00 0.00 0.00 89 1018.0
20260507041303 61 350 3.0 0.0 0.00 0.00 0.00 87 1018.0
20260507040202 61 350 3.0 0.0 0.00 0.00 0.00 83 1018.0
20260507035102 61 350 3.0 0.0 0.00 0.00 0.00 83 1018.0
20260507033956 61 350 3.0 0.0 0.00 0.00 0.00 84 1018.0
20260507032855 61 350 3.0 0.0 0.00 0.00 0.00 85 1017.0
20260507031755 61 350 3.0 0.0 0.00 0.00 0.00 86 1017.0
20260507030654 61 350 3.0 0.0 0.00 0.00 0.00 87 1017.0
20260507025554 61 350 3.0 0.0 0.00 0.00 0.00 87 1017.0
20260507024453 61 350 3.0 0.0 0.00 0.00 0.00 87 1017.0
20260507023352 61 350 3.0 0.0 0.00 0.00 0.00 86 1017.0
20260507022249 61 350 3.0 0.0 0.00 0.00 0.00 85 1017.0
20260507021149 61 350 3.0 0.0 0.00 0.00 0.00 83 1017.0
20260507020048 61 350 3.0 0.0 0.00 0.00 0.00 80 1017.0
20260507014948 61 350 3.0 0.0 0.00 0.00 0.00 80 1017.0
20260507013847 61 350 3.0 0.0 0.00 0.00 0.00 79 1017.0
20260507012746 61 350 3.0 0.0 0.00 0.00 0.00 78 1016.0
20260507011644 61 350 3.0 0.0 0.00 0.00 0.00 78 1016.0
20260507010543 61 350 3.0 0.0 0.00 0.00 0.00 78 1016.0
20260507005443 64 0 2.0 0.0 0.00 0.00 0.00 69 1016.0
20260507004341 64 0 2.0 0.0 0.00 0.00 0.00 69 1016.0
20260507003239 64 0 2.0 0.0 0.00 0.00 0.00 72 1016.0
20260507002139 64 0 2.0 0.0 0.00 0.00 0.00 72 1015.0
20260507001037 64 0 2.0 0.0 0.00 0.00 0.00 72 1015.0
20260506235937 68 0 1.0 0.0 0.00 0.00 0.00 56 1015.0
20260506234836 68 0 1.0 0.0 0.00 0.00 0.00 56 1015.0
20260506233736 68 0 1.0 0.0 0.00 0.00 0.00 56 1015.0
20260506232635 68 0 1.0 0.0 0.00 0.00 0.00 56 1014.0
20260506231535 68 0 1.0 0.0 0.00 0.00 0.00 56 1014.0
20260506230433 70 0 3.0 0.0 0.00 0.00 0.00 49 1014.0
20260506225332 70 0 3.0 0.0 0.00 0.00 0.00 49 1014.0
20260506224232 70 0 3.0 0.0 0.00 0.00 0.00 49 1013.0
20260506223131 69 0 3.0 0.0 0.00 0.00 0.00 48 1013.0
20260506222032 69 0 3.0 0.0 0.00 0.00 0.00 47 1012.0
20260506220928 69 81 3.0 6.0 0.00 0.00 0.00 46 1012.0
20260506215827 73 130 5.0 0.0 0.00 0.00 0.00 43 1012.0
20260506214726 73 130 5.0 0.0 0.00 0.00 0.00 43 1012.0
20260506213625 74 0 8.0 21.0 0.00 0.00 0.00 44 1011.0
20260506212525 74 0 8.0 21.0 0.00 0.00 0.00 44 1010.0
20260506210222 74 0 8.0 21.0 0.00 0.00 0.00 44 1010.0
20260506205119 74 0 8.0 21.0 0.00 0.00 0.00 44 1010.0
20260506204018 74 0 8.0 21.0 0.00 0.00 0.00 45 1011.0
20260506202918 74 0 8.0 21.0 0.00 0.00 0.00 46 1010.0
20260506201817 74 0 8.0 21.0 0.00 0.00 0.00 48 1010.0
20260506200714 73 0 8.0 21.0 0.00 0.00 0.00 50 1010.0
20260506195613 72 0 6.0 0.0 0.00 0.00 0.00 54 1010.0
20260506194511 72 0 6.0 0.0 0.00 0.00 0.00 54 1010.0
20260506193410 72 0 6.0 0.0 0.00 0.00 0.00 54 1010.0
20260506192310 72 0 6.0 0.0 0.00 0.00 0.00 54 1010.0
20260506191209 72 0 6.0 0.0 0.00 0.00 0.00 55 1010.0
20260506190108 72 0 5.0 0.0 0.00 0.00 0.00 57 1011.0
20260506185008 72 0 5.0 0.0 0.00 0.00 0.00 57 1011.0
20260506183906 72 0 5.0 0.0 0.00 0.00 0.00 57 1011.0
20260506182805 72 0 5.0 0.0 0.00 0.00 0.00 58 1012.0
20260506181704 71 0 5.0 0.0 0.00 0.00 0.00 59 1012.0
20260506180604 70 0 5.0 0.0 0.00 0.00 0.00 61 1012.0
20260506175503 68 160 5.0 0.0 0.00 0.00 0.00 65 1012.0
20260506174403 68 160 5.0 0.0 0.00 0.00 0.00 65 1012.0
20260506173302 68 160 5.0 0.0 0.00 0.00 0.00 65 1012.0
20260506172200 68 160 5.0 0.0 0.00 0.00 0.00 66 1013.0
20260506171059 68 160 5.0 0.0 0.00 0.00 0.00 67 1013.0
20260506165959 67 160 6.0 0.0 0.00 0.00 0.00 69 1013.0
20260506164856 67 160 6.0 0.0 0.00 0.00 0.00 69 1013.0
20260506163755 67 160 6.0 0.0 0.00 0.00 0.00 69 1014.0
20260506162655 67 160 6.0 0.0 0.00 0.00 0.00 69 1015.0
20260506161554 67 160 6.0 0.0 0.00 0.00 0.00 69 1015.0
20260506160453 67 160 6.0 0.0 0.00 0.00 0.00 70 1015.0
20260506155350 67 0 4.0 0.0 0.00 0.00 0.00 72 1015.0
20260506154250 67 0 4.0 0.0 0.00 0.00 0.00 72 1015.0
20260506153148 67 0 4.0 0.0 0.00 0.00 0.00 72 1016.0
20260506152048 67 0 4.0 0.0 0.00 0.00 0.00 72 1016.0
20260506150947 67 0 4.0 0.0 0.00 0.00 0.00 72 1016.0
20260506145847 66 0 4.0 0.0 0.00 0.00 0.00 72 1016.0
20260506144746 66 0 4.0 0.0 0.00 0.00 0.00 72 1016.0
20260506143646 61 0 1.0 0.0 0.00 0.00 0.00 94 1016.0
20260506142545 61 0 1.0 0.0 0.00 0.00 0.00 94 1017.0
20260506141445 61 0 1.0 0.0 0.00 0.00 0.00 94 1017.0
20260506140344 61 0 1.0 0.0 0.00 0.00 0.00 94 1017.0
20260506135243 61 0 1.0 0.0 0.00 0.00 0.00 94 1017.0
20260506134143 61 0 1.0 0.0 0.00 0.00 0.00 94 1017.0
20260506133042 59 0 1.0 0.0 0.00 0.00 0.00 95 1017.0
20260506131942 59 0 1.0 0.0 0.00 0.00 0.00 96 1017.0
20260506130841 59 0 1.0 0.0 0.00 0.00 0.00 97 1017.0
20260506125740 59 0 1.0 0.0 0.00 0.00 0.00 99 1017.0
20260506124639 59 0 1.0 0.0 0.00 0.00 0.00 99 1017.0
20260506123537 59 0 1.0 0.0 0.00 0.00 0.00 99 1017.0
20260506122437 59 0 1.0 0.0 0.00 0.00 0.00 99 1017.0
20260506121336 59 0 1.0 0.0 0.00 0.00 0.00 99 1017.0
20260506120236 59 0 1.0 0.0 0.00 0.00 0.00 99 1017.0
20260506115134 59 0 1.0 0.0 0.00 0.00 0.00 99 1017.0
20260506114034 59 0 1.0 0.0 0.00 0.00 0.00 99 1017.0
20260506112933 59 0 1.0 0.0 0.00 0.00 0.00 99 1017.0
20260506111833 59 0 1.0 0.0 0.00 0.00 0.00 99 1017.0
20260506110732 59 0 1.0 0.0 0.00 0.00 0.00 99 1017.0
20260506105629 59 0 1.0 0.0 0.00 0.00 0.00 99 1017.0
20260506104529 59 0 1.0 0.0 0.00 0.00 0.00 99 1017.0
20260506103428 59 0 2.0 0.0 0.00 0.00 0.00 99 1017.0
20260506102326 59 0 2.0 0.0 0.00 0.00 0.00 99 1016.0
20260506101226 59 0 1.0 0.0 0.00 0.00 0.00 99 1016.0
20260506100126 59 0 2.0 0.0 0.00 0.00 0.00 10 1016.0
20260506095025 59 0 2.0 0.0 0.00 0.00 0.00 10 1016.0
20260506093924 59 0 2.0 0.0 0.00 0.00 0.00 10 1016.0
20260506092824 59 0 2.0 0.0 0.00 0.00 0.00 10 1016.0